Tracking 31027 objects as of 19-Jul-2025
HD Live streaming from Space Station
objects crossing your sky now

STARLINK-4518

Track STARLINK-4518 now!
10-day predictions
STARLINK-4518 is classified as:


NORAD ID: 53550
Int'l Code: 2022-101Z
Perigee: 545.7 km
Apogee: 547.8 km
Inclination: 53.2 °
Period: 95.4 minutes
Semi major axis: 6917 km
RCS: Unknown
Launch date: August 19, 2022
Source: United States (US)
Launch site: AIR FORCE EASTERN TEST RANGE (AFETR)
Your satellite tracking list
STARLINK-6351
Track 1 satellite(s)




NASA's NSSDC Master Catalog

Two Line Element Set (TLE):
1 53550U 22101Z   25199.44884612 -.00010791  00000-0 -66018-3 0  9991
2 53550  53.2177  35.6668 0001568  82.8455 277.2715 15.08880235161606
Source of the keplerian elements: AFSPC